loading
DOY 173 | 2024-06-21T05:42:27Z
Showing default

DASH 1, 589

Orbit data source: Space-Track

DASH 1, 589 is an American payload satellite that was launched on Thu, 09 May 1963 UTC via an Atlas Agena B launch vehicle from the Air Force Western Test Range (AFWTR). Payloads include a variety of satellites, spacecraft, and rockets equipped with specific instruments for various scientific and technological missions. These include communications satellites like Starlink; space stations such as the ISS; scientific satellites like the Hubble; Earth observation satellites from companies like Planet Labs, Umbra, and HawkEye 360; GPS; miniature CubeSats for education and research; and military/defense satellites.

Loading next visibility...
Loading greatness...
DASH 1 details
NORAD ID589
COSPAR ID
1963-014D
Orbit
Active
Last TLE update2 days ago
Origin
Flag of USAFSSD? (US)
ManufacturerMITLL?
BusDASH
MotorUnknown
Mass1 kg wet, 1 kg dry
Launch date (UTC)
1963-05-09 (61 years ago)
Launch vehicle
Atlas Agena B
Launch site
Air Force Western Test Range (AFWTR)
Object type
Payload
Rocket body
Debris
Radar Cross SectionLarge (>1 m²)
Predictive object data (real-time)
Latitude-20.61726°
Longitude-69.33815°
Altitude3,782.725 km
Speed6.221 km/s
Apparent Right ascension05h 08m 55s
Apparent Declination-27° 59' 58"
Sunlit
Object is in daylight
Predictive observer data (real-time)
Local Sidereal Time16:41:39
Azimuth332.648° NNW
Elevation-76.822°
Doppler factor1
Orbital elements
Apogee3,773.362 km
Perigee3,505.004 km
Semi-major axis10,017.32 km
Eccentricity0.0133947
Inclination87.3092°
RAAN259.8733°
Arg. of periapsis20.6902°
True anomaly339.39578°
Mean anomaly339.9309°
Mean motion2.16479 °/min
BSTAR-0.030549
Period166.3 mins
Definitive object data (Epoch: 2024-06-19T16:06:46.92Z)
Latitude-0°
Longitude109.80338°
Altitude3,517.69 km
Speed6.387 km/s
True Right ascension17h 19m 29s
True Declination0° 00' 00"
Sunlit
Object was in full shadow at TLE epoch
TLE from 2 days ago
0 DASH 1
1 00589U 63014D   24171.67137639 -.00000063  00000-0 -30549-1 0  9996
2 00589  87.3092 259.8733 0133947  20.6902 339.9309  8.65633107930867
Epoch: 2024-06-19T16:06Z
No data available

DASH 1 Visibility forecast

Observer location: 39.9160978°, -105.1181434, 0m alt.

DASH 1 is not visible in the next 10 days
Span
Click to sort rows by Start time (UTC) header in descending order
Start Az.
Max El. time (UTC)
Max El. Az.
Max El.
End time (UTC)
End Az.